Terminal Aerodrome Forecast
Issued by NWS Binghamton, NY

Home | Current Version | Previous Version | Text Only | Print | Product List | Glossary On
Versions: 1 2 3 4 5 6 7 8 9 10 11 12 13 14 15 16 17
000
FTUS41 KBGM 230530
TAFSYR
TAF
KSYR 230530Z 2306/2406 26010KT P6SM SCT100
     FM231400 27015G25KT P6SM BKN045
     FM232300 27005KT P6SM SCT040 SCT100=

USA.gov is the U.S. government's official web portal to all federal, state and local government web resources and services.